#timestamp,LO_Frequency,Hit,Temp,Hum 
1480208415.1,286047057.3,N,0.0,0.0
1480208416.0,286047057.3,N,0.0,0.0
1480208435.8,286047057.8,N,0.0,0.0
1480208455.6,286047060.3,N,0.0,0.0
1480208475.5,286047059.0,N,0.0,0.0
1480208495.3,286047059.7,N,0.0,0.0
1480208515.2,286047059.6,N,0.0,0.0
1480208535.9,286047058.9,N,0.0,0.0
1480208555.7,286047061.3,N,0.0,0.0
1480208575.6,286047060.7,N,0.0,0.0
1480208595.4,286047060.9,N,0.0,0.0
1480208615.2,286047061.2,N,0.0,0.0
1480208635.1,286047060.6,N,0.0,0.0
1480208636.0,286047060.6,N,0.0,0.0
1480208655.8,286047061.0,N,0.0,0.0
1480208675.7,286047059.9,N,0.0,0.0
1480208695.5,286047057.7,N,0.0,0.0
1480208715.3,286047057.3,N,0.0,0.0
1480208735.2,286047057.5,N,0.0,0.0
1480208755.0,286047055.8,N,0.0,0.0
1480208755.9,286047055.8,N,0.0,0.0
1480208775.8,286047058.0,N,0.0,0.0
1480208795.6,286047059.6,N,0.0,0.0
1480208815.4,286047058.5,N,0.0,0.0
1480208835.3,286047059.9,N,0.0,0.0
1480208855.1,286047059.2,N,0.0,0.0
1480208875.8,286047061.6,N,0.0,0.0
1480208895.7,286047059.3,N,0.0,0.0
1480208915.5,286047060.3,N,0.0,0.0
1480208935.4,286047060.3,N,0.0,0.0
1480208955.2,286047058.6,N,0.0,0.0
1480208975.0,286047060.1,N,0.0,0.0
1480208975.9,286047060.1,N,0.0,0.0
1480208995.8,286047059.0,N,0.0,0.0
1480209015.6,286047058.9,N,0.0,0.0
1480209035.4,286047061.1,N,0.0,0.0
1480209055.3,286047060.9,N,0.0,0.0
1480209075.1,286047063.0,N,0.0,0.0
1480209095.9,286047062.5,N,0.0,0.0
1480209115.7,286047065.0,N,0.0,0.0
1480209135.5,286047064.4,N,0.0,0.0
1480209155.4,286047062.2,N,0.0,0.0
1480209175.2,286047062.1,N,0.0,0.0
1480209195.0,286047064.9,N,0.0,0.0
1480209196.0,286047064.9,N,0.0,0.0
1480209215.8,286047063.8,N,0.0,0.0
1480209235.6,286047065.6,N,0.0,0.0
1480209255.5,286047068.2,N,0.0,0.0
1480209275.3,286047066.9,N,0.0,0.0
1480209295.1,286047070.0,N,0.0,0.0
1480209315.9,286047068.4,N,0.0,0.0
1480209335.7,286047064.9,N,0.0,0.0
1480209355.6,286047059.4,N,0.0,0.0
1480209375.4,286047057.5,N,0.0,0.0
1480209395.2,286047061.6,N,0.0,0.0
1480209415.1,286047061.0,N,0.0,0.0
1480209416.0,286047061.0,N,0.0,0.0
1480209435.8,286047062.4,N,0.0,0.0
1480209455.6,286047064.5,N,0.0,0.0
1480209475.5,286047064.0,N,0.0,0.0
1480209495.3,286047064.7,N,0.0,0.0
1480209515.2,286047062.7,N,0.0,0.0
1480209535.9,286047063.1,N,0.0,0.0
1480209555.7,286047061.2,N,0.0,0.0
1480209575.6,286047057.4,N,0.0,0.0
1480209595.4,286047062.0,N,0.0,0.0
1480209615.2,286047057.9,N,0.0,0.0
1480209635.1,286047055.8,N,0.0,0.0
1480209636.0,286047055.8,N,0.0,0.0
1480209655.8,286047061.5,N,0.0,0.0
1480209675.7,286047060.5,N,0.0,0.0
1480209695.5,286047062.8,N,0.0,0.0
1480209715.3,286047062.2,N,0.0,0.0
1480209735.2,286047063.8,N,0.0,0.0
1480209755.0,286047067.7,N,0.0,0.0
1480209755.9,286047067.7,N,0.0,0.0
1480209775.8,286047067.1,N,0.0,0.0
1480209795.6,286047069.9,N,0.0,0.0
1480209815.4,286047067.6,N,0.0,0.0
1480209835.3,286047064.6,N,0.0,0.0
1480209855.1,286047061.3,N,0.0,0.0
1480209875.9,286047061.0,N,0.0,0.0
1480209895.7,286047060.7,N,0.0,0.0
1480209915.5,286047060.6,N,0.0,0.0
1480209935.4,286047060.8,N,0.0,0.0
1480209955.2,286047060.5,N,0.0,0.0
1480209975.0,286047062.8,N,0.0,0.0
1480209976.0,286047062.8,N,0.0,0.0
1480209995.8,286047062.6,N,0.0,0.0
1480210015.6,286047061.2,N,0.0,0.0
1480210035.5,286047063.0,N,0.0,0.0
1480210055.3,286047064.3,N,0.0,0.0
1480210075.1,286047066.2,N,0.0,0.0
1480210095.9,286047068.3,N,0.0,0.0
1480210115.7,286047067.2,N,0.0,0.0
1480210135.6,286047066.3,N,0.0,0.0
1480210155.4,286047065.6,N,0.0,0.0
1480210175.2,286047065.2,N,0.0,0.0
1480210195.1,286047063.2,N,0.0,0.0
1480210196.0,286047063.2,N,0.0,0.0
1480210215.8,286047059.3,N,0.0,0.0
1480210235.7,286047060.4,N,0.0,0.0
1480210255.5,286047062.0,N,0.0,0.0
1480210275.3,286047061.9,N,0.0,0.0
1480210295.2,286047059.4,N,0.0,0.0
1480210315.0,286047060.6,N,0.0,0.0
1480210315.9,286047060.6,N,0.0,0.0
1480210335.7,286047061.0,N,0.0,0.0
1480210355.6,286047064.6,N,0.0,0.0
1480210375.4,286047062.3,N,0.0,0.0
1480210395.3,286047061.0,N,0.0,0.0
1480210415.1,286047062.6,N,0.0,0.0
1480210435.8,286047064.5,N,0.0,0.0
1480210455.7,286047063.7,N,0.0,0.0
1480210475.5,286047066.1,N,0.0,0.0
1480210495.4,286047068.3,N,0.0,0.0
1480210515.2,286047065.8,N,0.0,0.0
1480210535.0,286047066.3,N,0.0,0.0
1480210535.9,286047066.3,N,0.0,0.0
1480210555.8,286047066.0,N,0.0,0.0
1480210575.6,286047066.8,N,0.0,0.0
1480210595.4,286047064.4,N,0.0,0.0
1480210615.3,286047064.0,N,0.0,0.0
1480210635.1,286047066.6,N,0.0,0.0
1480210655.9,286047065.7,N,0.0,0.0
1480210675.7,286047065.9,N,0.0,0.0
1480210695.5,286047064.1,N,0.0,0.0
1480210715.4,286047064.6,N,0.0,0.0
1480210735.2,286047063.9,N,0.0,0.0
1480210755.0,286047064.2,N,0.0,0.0
1480210755.9,286047064.2,N,0.0,0.0
1480210775.8,286047064.0,N,0.0,0.0
1480210795.6,286047062.4,N,0.0,0.0
1480210815.5,286047062.2,N,0.0,0.0
1480210835.3,286047066.0,N,0.0,0.0
1480210855.1,286047067.7,N,0.0,0.0
1480210875.9,286047068.2,N,0.0,0.0
1480210895.7,286047069.7,N,0.0,0.0
1480210915.6,286047069.5,N,0.0,0.0
1480210935.4,286047068.7,N,0.0,0.0
1480210955.2,286047067.4,N,0.0,0.0
1480210975.1,286047063.8,N,0.0,0.0
1480210976.0,286047063.8,N,0.0,0.0
1480210995.8,286047066.2,N,0.0,0.0
1480211015.6,286047065.9,N,0.0,0.0
1480211035.5,286047065.9,N,0.0,0.0
1480211055.3,286047065.6,N,0.0,0.0
1480211075.2,286047065.5,N,0.0,0.0
1480211095.9,286047066.5,N,0.0,0.0
1480211115.7,286047064.0,N,0.0,0.0
1480211135.6,286047062.7,N,0.0,0.0
1480211155.4,286047066.2,N,0.0,0.0
1480211175.3,286047063.8,N,0.0,0.0
1480211195.1,286047066.1,N,0.0,0.0
1480211196.0,286047066.1,N,0.0,0.0
1480211215.8,286047067.9,N,0.0,0.0
1480211235.7,286047063.7,N,0.0,0.0
1480211255.5,286047065.2,N,0.0,0.0
1480211275.3,286047064.2,N,0.0,0.0
1480211295.2,286047064.1,N,0.0,0.0
1480211315.0,286047063.7,N,0.0,0.0
1480211315.9,286047063.7,N,0.0,0.0
1480211335.8,286047067.4,N,0.0,0.0
1480211355.6,286047071.2,N,0.0,0.0
1480211375.4,286047071.3,N,0.0,0.0
1480211395.3,286047068.7,N,0.0,0.0
1480211415.1,286047069.1,N,0.0,0.0
1480211435.9,286047069.0,N,0.0,0.0
1480211455.7,286047070.8,N,0.0,0.0
1480211475.5,286047071.5,N,0.0,0.0
1480211495.4,286047067.3,N,0.0,0.0
1480211515.2,286047063.9,N,0.0,0.0
1480211535.0,286047062.5,N,0.0,0.0
1480211535.9,286047062.5,N,0.0,0.0
1480211555.8,286047064.6,N,0.0,0.0
1480211575.6,286047065.5,N,0.0,0.0
1480211595.5,286047069.6,N,0.0,0.0
1480211615.3,286047071.1,N,0.0,0.0
1480211635.1,286047072.7,N,0.0,0.0
1480211655.9,286047074.6,N,0.0,0.0
1480211675.7,286047074.3,N,0.0,0.0
1480211695.6,286047072.3,N,0.0,0.0
1480211715.4,286047072.1,N,0.0,0.0
1480211735.2,286047070.6,N,0.0,0.0
1480211755.1,286047071.5,N,0.0,0.0
1480211756.0,286047071.5,N,0.0,0.0
1480211775.8,286047067.8,N,0.0,0.0
1480211795.6,286047064.7,N,0.0,0.0
1480211815.5,286047060.6,N,0.0,0.0
1480211835.3,286047061.6,N,0.0,0.0
1480211855.2,286047063.2,N,0.0,0.0
1480211875.9,286047060.6,N,0.0,0.0
1480211895.7,286047061.9,N,0.0,0.0
1480211915.6,286047060.2,N,0.0,0.0
1480211935.4,286047061.5,N,0.0,0.0
1480211955.2,286047063.6,N,0.0,0.0
1480211975.1,286047063.4,N,0.0,0.0
1480211976.0,286047063.4,N,0.0,0.0
1480211995.8,286047061.1,N,0.0,0.0
